| time (UTC) | temp F | wind direction | speed MPH | gust MPH | rain 1hr in | rain 24hr in | rain mn in | humidity % | barometer mb |
| 20260502231406 | 41 | 67 | 0.0 | 0.0 | 0.00 | 0.00 | 0.00 | 77 | 1012.7 |
| 20260502230905 | 41 | 67 | 0.0 | 0.0 | 0.00 | 0.00 | 0.00 | 76 | 1012.7 |
| 20260502230405 | 41 | 67 | 0.0 | 0.0 | 0.00 | 0.00 | 0.00 | 75 | 1012.7 |
| 20260502225905 | 41 | 67 | 0.0 | 0.0 | 0.00 | 0.00 | 0.00 | 74 | 1012.6 |
| 20260502225405 | 41 | 67 | 0.0 | 0.0 | 0.00 | 0.00 | 0.00 | 74 | 1012.7 |
| 20260502224904 | 41 | 67 | 0.0 | 0.0 | 0.00 | 0.00 | 0.00 | 74 | 1012.8 |
| 20260502224404 | 41 | 67 | 0.0 | 0.0 | 0.00 | 0.00 | 0.00 | 74 | 1012.8 |
| 20260502223904 | 41 | 67 | 0.0 | 0.0 | 0.00 | 0.00 | 0.00 | 74 | 1012.7 |
| 20260502223404 | 42 | 67 | 0.0 | 0.0 | 0.00 | 0.00 | 0.00 | 74 | 1012.8 |
| 20260502222903 | 42 | 67 | 0.0 | 0.0 | 0.00 | 0.00 | 0.00 | 73 | 1012.7 |
| 20260502222403 | 42 | 67 | 0.0 | 0.0 | 0.00 | 0.00 | 0.00 | 73 | 1013.0 |
| 20260502221903 | 43 | 67 | 0.0 | 0.0 | 0.00 | 0.00 | 0.00 | 73 | 1013.0 |
| 20260502221403 | 43 | 67 | 0.0 | 0.0 | 0.00 | 0.00 | 0.00 | 73 | 1013.0 |
| 20260502220902 | 43 | 67 | 0.0 | 0.0 | 0.00 | 0.00 | 0.00 | 73 | 1013.0 |
| 20260502220402 | 43 | 67 | 0.0 | 0.0 | 0.00 | 0.00 | 0.00 | 73 | 1012.9 |
| 20260502215902 | 43 | 67 | 0.0 | 0.0 | 0.00 | 0.00 | 0.00 | 72 | 1013.0 |
| 20260502215401 | 43 | 67 | 0.0 | 0.0 | 0.00 | 0.00 | 0.00 | 72 | 1013.1 |
| 20260502214901 | 43 | 67 | 0.0 | 0.0 | 0.00 | 0.00 | 0.00 | 71 | 1013.0 |
| 20260502214401 | 43 | 67 | 0.0 | 0.0 | 0.00 | 0.00 | 0.00 | 71 | 1013.0 |
| 20260502213901 | 43 | 67 | 0.0 | 0.0 | 0.00 | 0.00 | 0.00 | 70 | 1012.9 |
| 20260502213400 | 43 | 67 | 0.0 | 0.0 | 0.00 | 0.00 | 0.00 | 69 | 1012.9 |
| 20260502212900 | 44 | 67 | 0.0 | 0.0 | 0.00 | 0.00 | 0.00 | 68 | 1012.9 |
| 20260502212400 | 44 | 67 | 0.0 | 0.0 | 0.00 | 0.00 | 0.00 | 67 | 1013.1 |
| 20260502211900 | 44 | 67 | 0.0 | 0.0 | 0.00 | 0.00 | 0.00 | 67 | 1013.1 |
| 20260502211359 | 44 | 67 | 0.0 | 0.0 | 0.00 | 0.00 | 0.00 | 66 | 1013.1 |
| 20260502210859 | 44 | 67 | 0.0 | 0.0 | 0.00 | 0.00 | 0.00 | 65 | 1013.0 |
| 20260502210359 | 45 | 67 | 0.0 | 0.0 | 0.00 | 0.00 | 0.00 | 64 | 1013.2 |
| 20260502205859 | 45 | 67 | 0.0 | 0.0 | 0.00 | 0.00 | 0.00 | 64 | 1013.4 |
| 20260502205358 | 45 | 67 | 0.0 | 0.0 | 0.00 | 0.00 | 0.00 | 63 | 1013.4 |
| 20260502204858 | 46 | 67 | 0.0 | 0.0 | 0.00 | 0.00 | 0.00 | 63 | 1013.4 |
| 20260502204358 | 46 | 67 | 0.0 | 0.0 | 0.00 | 0.00 | 0.00 | 62 | 1013.4 |
| 20260502203858 | 46 | 67 | 0.0 | 0.0 | 0.00 | 0.00 | 0.00 | 61 | 1013.3 |
| 20260502203357 | 46 | 67 | 0.0 | 0.0 | 0.00 | 0.00 | 0.00 | 60 | 1013.5 |
| 20260502202857 | 47 | 67 | 0.0 | 0.0 | 0.00 | 0.00 | 0.00 | 60 | 1013.4 |
| 20260502202357 | 47 | 67 | 0.0 | 0.0 | 0.00 | 0.00 | 0.00 | 58 | 1013.4 |
| 20260502201857 | 47 | 67 | 0.0 | 0.0 | 0.00 | 0.00 | 0.00 | 58 | 1013.2 |
| 20260502201356 | 47 | 67 | 0.0 | 0.0 | 0.00 | 0.00 | 0.00 | 57 | 1013.2 |
| 20260502200856 | 48 | 67 | 0.0 | 0.0 | 0.00 | 0.00 | 0.00 | 57 | 1013.3 |
| 20260502200356 | 48 | 67 | 0.0 | 0.0 | 0.00 | 0.00 | 0.00 | 56 | 1013.5 |
| 20260502195855 | 49 | 67 | 0.0 | 0.0 | 0.00 | 0.00 | 0.00 | 56 | 1013.6 |
| 20260502195355 | 48 | 67 | 0.0 | 0.0 | 0.00 | 0.00 | 0.00 | 55 | 1013.5 |
| 20260502194855 | 48 | 67 | 0.0 | 0.0 | 0.00 | 0.00 | 0.00 | 54 | 1013.5 |
| 20260502194355 | 49 | 67 | 0.0 | 0.0 | 0.00 | 0.00 | 0.00 | 53 | 1013.4 |
| 20260502193854 | 50 | 67 | 0.0 | 0.0 | 0.00 | 0.00 | 0.00 | 53 | 1013.4 |
| 20260502193354 | 50 | 67 | 0.0 | 0.0 | 0.00 | 0.00 | 0.00 | 52 | 1013.3 |
| 20260502192854 | 50 | 67 | 0.0 | 0.0 | 0.00 | 0.00 | 0.00 | 50 | 1013.4 |
| 20260502192354 | 51 | 67 | 0.0 | 0.0 | 0.00 | 0.00 | 0.00 | 50 | 1013.6 |
| 20260502191853 | 51 | 67 | 0.0 | 0.0 | 0.00 | 0.00 | 0.00 | 50 | 1013.6 |
| 20260502191353 | 51 | 67 | 0.0 | 0.0 | 0.00 | 0.00 | 0.00 | 48 | 1013.4 |
| 20260502190853 | 52 | 67 | 0.0 | 0.0 | 0.00 | 0.00 | 0.00 | 46 | 1013.4 |
| 20260502190352 | 52 | 67 | 0.0 | 0.0 | 0.00 | 0.00 | 0.00 | 45 | 1013.5 |
| 20260502185852 | 53 | 67 | 0.0 | 0.0 | 0.00 | 0.00 | 0.00 | 46 | 1013.5 |
| 20260502185352 | 54 | 67 | 0.0 | 0.0 | 0.00 | 0.00 | 0.00 | 44 | 1013.4 |
| 20260502184852 | 54 | 67 | 0.0 | 0.0 | 0.00 | 0.00 | 0.00 | 42 | 1013.6 |
| 20260502184351 | 55 | 67 | 0.0 | 0.0 | 0.00 | 0.00 | 0.00 | 40 | 1013.5 |
| 20260502183851 | 56 | 67 | 0.0 | 0.0 | 0.00 | 0.00 | 0.00 | 39 | 1013.4 |
| 20260502183351 | 57 | 67 | 0.0 | 0.0 | 0.00 | 0.00 | 0.00 | 39 | 1013.3 |
| 20260502182851 | 58 | 67 | 0.0 | 0.0 | 0.00 | 0.00 | 0.00 | 38 | 1013.3 |
| 20260502182350 | 59 | 67 | 0.0 | 0.0 | 0.00 | 0.00 | 0.00 | 36 | 1013.3 |
| 20260502181850 | 60 | 67 | 0.0 | 0.0 | 0.00 | 0.00 | 0.00 | 36 | 1013.4 |
| 20260502181350 | 62 | 67 | 0.0 | 0.0 | 0.00 | 0.00 | 0.00 | 34 | 1013.3 |
| 20260502180850 | 62 | 67 | 0.0 | 0.0 | 0.00 | 0.00 | 0.00 | 33 | 1013.3 |
| 20260502180349 | 64 | 67 | 0.0 | 0.0 | 0.00 | 0.00 | 0.00 | 32 | 1013.1 |
| 20260502170346 | 80 | 67 | 0.0 | 0.0 | 0.00 | 0.00 | 0.00 | 23 | 1013.4 |
| 20260502164345 | 83 | 67 | 0.0 | 0.0 | 0.00 | 0.00 | 0.00 | 21 | 1013.6 |
| 20260502163845 | 84 | 135 | 0.0 | 0.0 | 0.00 | 0.00 | 0.00 | 21 | 1013.8 |
| 20260502163345 | 84 | 45 | 0.0 | 0.0 | 0.00 | 0.00 | 0.00 | 21 | 1013.7 |
| 20260502162844 | 83 | 90 | 0.0 | 0.0 | 0.00 | 0.00 | 0.00 | 22 | 1013.9 |
| 20260502162344 | 82 | 90 | 0.0 | 0.0 | 0.00 | 0.00 | 0.00 | 22 | 1014.0 |
| 20260502161844 | 82 | 67 | 0.0 | 5.0 | 0.00 | 0.00 | 0.00 | 21 | 1013.9 |
| 20260502161344 | 82 | 67 | 0.0 | 6.0 | 0.00 | 0.00 | 0.00 | 21 | 1014.0 |
| 20260502160843 | 82 | 157 | 0.0 | 0.0 | 0.00 | 0.00 | 0.00 | 22 | 1013.9 |
| 20260502160343 | 84 | 45 | 0.0 | 0.0 | 0.00 | 0.00 | 0.00 | 22 | 1014.1 |
| 20260502152341 | 86 | 67 | 1.0 | 1.0 | 0.00 | 0.00 | 0.00 | 21 | 1014.8 |
| 20260502151841 | 86 | 67 | 0.0 | 2.0 | 0.00 | 0.00 | 0.00 | 22 | 1014.8 |
| 20260502151340 | 85 | 157 | 0.0 | 0.0 | 0.00 | 0.00 | 0.00 | 22 | 1014.9 |
| 20260502150840 | 85 | 135 | 0.0 | 0.0 | 0.00 | 0.00 | 0.00 | 22 | 1014.9 |
| 20260502150340 | 84 | 180 | 0.0 | 0.0 | 0.00 | 0.00 | 0.00 | 22 | 1015.0 |
| 20260502130333 | 84 | 45 | 5.0 | 6.0 | 0.00 | 0.00 | 0.00 | 24 | 1016.4 |
| 20260502123332 | 87 | 45 | 1.0 | 1.0 | 0.00 | 0.00 | 0.00 | 22 | 1016.6 |
| 20260502122832 | 87 | 112 | 0.0 | 0.0 | 0.00 | 0.00 | 0.00 | 22 | 1016.8 |
| 20260502122331 | 87 | 45 | 0.0 | 6.0 | 0.00 | 0.00 | 0.00 | 22 | 1016.9 |
| 20260502121831 | 88 | 45 | 3.0 | 3.0 | 0.00 | 0.00 | 0.00 | 23 | 1017.0 |
| 20260502121331 | 87 | 22 | 0.0 | 0.0 | 0.00 | 0.00 | 0.00 | 23 | 1017.1 |
| 20260502120831 | 87 | 112 | 0.0 | 1.0 | 0.00 | 0.00 | 0.00 | 23 | 1017.2 |
| 20260502120330 | 87 | 67 | 0.0 | 5.0 | 0.00 | 0.00 | 0.00 | 23 | 1017.3 |
| 20260502115830 | 88 | 157 | 5.0 | 5.0 | 0.00 | 0.00 | 0.00 | 22 | 1017.4 |
| 20260502115330 | 88 | 22 | 0.0 | 0.0 | 0.00 | 0.00 | 0.00 | 24 | 1017.4 |
| 20260502114830 | 87 | 67 | 0.0 | 0.0 | 0.00 | 0.00 | 0.00 | 22 | 1017.5 |
| 20260502114329 | 87 | 45 | 0.0 | 5.0 | 0.00 | 0.00 | 0.00 | 24 | 1017.3 |
| 20260502113829 | 87 | 45 | 5.0 | 5.0 | 0.00 | 0.00 | 0.00 | 23 | 1017.6 |
| 20260502113329 | 86 | 45 | 0.0 | 0.0 | 0.00 | 0.00 | 0.00 | 22 | 1017.7 |
| 20260502112828 | 86 | 135 | 0.0 | 0.0 | 0.00 | 0.00 | 0.00 | 23 | 1017.8 |
| 20260502112328 | 85 | 67 | 0.0 | 0.0 | 0.00 | 0.00 | 0.00 | 23 | 1017.8 |
| 20260502111828 | 85 | 180 | 0.0 | 0.0 | 0.00 | 0.00 | 0.00 | 23 | 1017.9 |
| 20260502111328 | 85 | 22 | 0.0 | 0.0 | 0.00 | 0.00 | 0.00 | 23 | 1018.0 |
| 20260502110828 | 86 | 112 | 0.0 | 0.0 | 0.00 | 0.00 | 0.00 | 25 | 1018.2 |
| 20260502110327 | 86 | 157 | 0.0 | 6.0 | 0.00 | 0.00 | 0.00 | 25 | 1018.0 |
| 20260502105827 | 86 | 67 | 6.0 | 6.0 | 0.00 | 0.00 | 0.00 | 25 | 1018.0 |
| 20260502105327 | 85 | 45 | 2.0 | 2.0 | 0.00 | 0.00 | 0.00 | 26 | 1018.1 |
| 20260502104826 | 83 | 67 | 0.0 | 5.0 | 0.00 | 0.00 | 0.00 | 25 | 1018.2 |
| 20260502104326 | 84 | 180 | 5.0 | 5.0 | 0.00 | 0.00 | 0.00 | 23 | 1018.3 |
| 20260502103826 | 85 | 157 | 0.0 | 3.0 | 0.00 | 0.00 | 0.00 | 25 | 1018.3 |
| 20260502103326 | 85 | 270 | 0.0 | 0.0 | 0.00 | 0.00 | 0.00 | 25 | 1018.2 |
| 20260502102825 | 84 | 337 | 0.0 | 3.0 | 0.00 | 0.00 | 0.00 | 25 | 1018.4 |
| 20260502102325 | 85 | 337 | 3.0 | 5.0 | 0.00 | 0.00 | 0.00 | 24 | 1018.6 |
| 20260502101825 | 85 | 45 | 0.0 | 0.0 | 0.00 | 0.00 | 0.00 | 23 | 1018.7 |
| 20260502101324 | 85 | 0 | 0.0 | 0.0 | 0.00 | 0.00 | 0.00 | 23 | 1018.6 |
| 20260502100824 | 85 | 90 | 0.0 | 1.0 | 0.00 | 0.00 | 0.00 | 25 | 1018.8 |
| 20260502100324 | 85 | 112 | 0.0 | 0.0 | 0.00 | 0.00 | 0.00 | 25 | 1018.7 |
| 20260502091321 | 87 | 157 | 0.0 | 0.0 | 0.00 | 0.00 | 0.00 | 23 | 1019.2 |
| 20260502090822 | 87 | 112 | 0.0 | 0.0 | 0.00 | 0.00 | 0.00 | 24 | 1019.4 |
| 20260502090321 | 87 | 112 | 0.0 | 0.0 | 0.00 | 0.00 | 0.00 | 25 | 1019.5 |
| 20260502071315 | 80 | 270 | 0.0 | 0.0 | 0.00 | 0.00 | 0.00 | 34 | 1020.1 |
| 20260502070815 | 81 | 247 | 0.0 | 0.0 | 0.00 | 0.00 | 0.00 | 35 | 1019.8 |
| 20260502070314 | 80 | 247 | 0.0 | 0.0 | 0.00 | 0.00 | 0.00 | 36 | 1020.0 |
| 20260502065814 | 80 | 247 | 0.0 | 0.0 | 0.00 | 0.00 | 0.00 | 35 | 1020.2 |
| 20260502065314 | 80 | 247 | 0.0 | 0.0 | 0.00 | 0.00 | 0.00 | 36 | 1019.9 |
| 20260502064814 | 79 | 292 | 0.0 | 0.0 | 0.00 | 0.00 | 0.00 | 37 | 1020.1 |
| 20260502064313 | 78 | 337 | 0.0 | 0.0 | 0.00 | 0.00 | 0.00 | 39 | 1020.1 |
| 20260502063813 | 76 | 0 | 0.0 | 0.0 | 0.00 | 0.00 | 0.00 | 40 | 1020.1 |
| 20260502063313 | 75 | 337 | 0.0 | 0.0 | 0.00 | 0.00 | 0.00 | 42 | 1020.2 |
| 20260502062813 | 73 | 337 | 0.0 | 0.0 | 0.00 | 0.00 | 0.00 | 43 | 1020.1 |
| 20260502062312 | 72 | 337 | 0.0 | 0.0 | 0.00 | 0.00 | 0.00 | 43 | 1020.3 |
| 20260502061812 | 72 | 337 | 0.0 | 0.0 | 0.00 | 0.00 | 0.00 | 44 | 1020.1 |
| 20260502061312 | 72 | 337 | 0.0 | 0.0 | 0.00 | 0.00 | 0.00 | 45 | 1020.2 |
| 20260502060812 | 72 | 337 | 0.0 | 0.0 | 0.00 | 0.00 | 0.00 | 46 | 1020.2 |
| 20260502060311 | 70 | 337 | 0.0 | 0.0 | 0.00 | 0.00 | 0.00 | 48 | 1020.3 |
| 20260502055811 | 68 | 337 | 0.0 | 0.0 | 0.00 | 0.00 | 0.00 | 50 | 1020.1 |
| 20260502055311 | 67 | 337 | 0.0 | 0.0 | 0.00 | 0.00 | 0.00 | 51 | 1020.1 |
| 20260502054811 | 67 | 337 | 0.0 | 0.0 | 0.00 | 0.00 | 0.00 | 52 | 1020.1 |
| 20260502054310 | 66 | 337 | 0.0 | 0.0 | 0.00 | 0.00 | 0.00 | 54 | 1020.3 |
| 20260502053810 | 65 | 337 | 0.0 | 0.0 | 0.00 | 0.00 | 0.00 | 57 | 1020.0 |
| 20260502053310 | 63 | 337 | 0.0 | 0.0 | 0.00 | 0.00 | 0.00 | 59 | 1020.2 |
| 20260502052809 | 62 | 337 | 0.0 | 0.0 | 0.00 | 0.00 | 0.00 | 63 | 1020.0 |
| 20260502052309 | 60 | 337 | 0.0 | 0.0 | 0.00 | 0.00 | 0.00 | 67 | 1020.2 |
| 20260502051809 | 58 | 337 | 0.0 | 0.0 | 0.00 | 0.00 | 0.00 | 70 | 1020.1 |
| 20260502051309 | 55 | 337 | 0.0 | 0.0 | 0.00 | 0.00 | 0.00 | 73 | 1020.3 |
| 20260502050808 | 54 | 337 | 0.0 | 0.0 | 0.00 | 0.00 | 0.00 | 76 | 1020.1 |
| 20260502050308 | 53 | 337 | 0.0 | 0.0 | 0.00 | 0.00 | 0.00 | 78 | 1020.2 |
| 20260502045808 | 53 | 337 | 0.0 | 0.0 | 0.00 | 0.00 | 0.00 | 82 | 1020.2 |
| 20260502045308 | 50 | 337 | 0.0 | 0.0 | 0.00 | 0.00 | 0.00 | 88 | 1020.1 |
| 20260502044807 | 49 | 337 | 0.0 | 0.0 | 0.00 | 0.00 | 0.00 | 90 | 1020.1 |
| 20260502044307 | 48 | 337 | 0.0 | 0.0 | 0.00 | 0.00 | 0.00 | 91 | 1020.1 |
| 20260502043807 | 46 | 337 | 0.0 | 0.0 | 0.00 | 0.00 | 0.00 | 91 | 1020.3 |
| 20260502043306 | 44 | 337 | 0.0 | 0.0 | 0.00 | 0.00 | 0.00 | 92 | 1019.9 |
| 20260502042806 | 44 | 337 | 0.0 | 0.0 | 0.00 | 0.00 | 0.00 | 92 | 1020.1 |
| 20260502042306 | 41 | 337 | 0.0 | 0.0 | 0.00 | 0.00 | 0.00 | 91 | 1020.2 |
| 20260502041806 | 39 | 337 | 0.0 | 0.0 | 0.00 | 0.00 | 0.00 | 91 | 1020.1 |
| 20260502041305 | 37 | 337 | 0.0 | 0.0 | 0.00 | 0.00 | 0.00 | 89 | 1020.2 |
| 20260502040805 | 36 | 337 | 0.0 | 0.0 | 0.00 | 0.00 | 0.00 | 89 | 1020.1 |
| 20260502040305 | 36 | 337 | 0.0 | 0.0 | 0.00 | 0.00 | 0.00 | 89 | 1020.2 |
| 20260502035805 | 36 | 337 | 0.0 | 0.0 | 0.00 | 0.00 | 0.00 | 89 | 1020.1 |
| 20260502035306 | 35 | 337 | 0.0 | 0.0 | 0.00 | 0.00 | 0.00 | 88 | 1020.0 |
| 20260502034804 | 35 | 337 | 0.0 | 0.0 | 0.00 | 0.00 | 0.00 | 88 | 1020.0 |
| 20260502034304 | 34 | 337 | 0.0 | 0.0 | 0.00 | 0.00 | 0.00 | 87 | 1020.0 |
| 20260502033804 | 34 | 337 | 0.0 | 0.0 | 0.00 | 0.00 | 0.00 | 87 | 1020.1 |
| 20260502033303 | 34 | 337 | 0.0 | 0.0 | 0.00 | 0.00 | 0.00 | 87 | 1020.0 |
| 20260502032803 | 34 | 337 | 0.0 | 0.0 | 0.00 | 0.00 | 0.00 | 87 | 1019.9 |
| 20260502032305 | 34 | 337 | 0.0 | 0.0 | 0.00 | 0.00 | 0.00 | 86 | 1020.1 |
| 20260502031803 | 34 | 337 | 0.0 | 0.0 | 0.00 | 0.00 | 0.00 | 86 | 1020.2 |
| 20260502031302 | 34 | 337 | 0.0 | 0.0 | 0.00 | 0.00 | 0.00 | 86 | 1020.3 |
| 20260502030802 | 35 | 337 | 0.0 | 0.0 | 0.00 | 0.00 | 0.00 | 86 | 1020.1 |
| 20260502030302 | 35 | 337 | 0.0 | 0.0 | 0.00 | 0.00 | 0.00 | 86 | 1020.2 |
| 20260502025801 | 35 | 337 | 0.0 | 0.0 | 0.00 | 0.00 | 0.00 | 86 | 1020.1 |
| 20260502025301 | 35 | 337 | 0.0 | 0.0 | 0.00 | 0.00 | 0.00 | 86 | 1020.1 |
| 20260502024801 | 35 | 337 | 0.0 | 0.0 | 0.00 | 0.00 | 0.00 | 86 | 1020.1 |
| 20260502024301 | 35 | 337 | 0.0 | 0.0 | 0.00 | 0.00 | 0.00 | 86 | 1020.3 |
| 20260502023800 | 35 | 337 | 0.0 | 0.0 | 0.00 | 0.00 | 0.00 | 86 | 1020.2 |
| 20260502023300 | 35 | 337 | 0.0 | 0.0 | 0.00 | 0.00 | 0.00 | 85 | 1020.2 |
| 20260502022800 | 35 | 337 | 0.0 | 0.0 | 0.00 | 0.00 | 0.00 | 85 | 1020.2 |
| 20260502022300 | 35 | 337 | 0.0 | 0.0 | 0.00 | 0.00 | 0.00 | 85 | 1020.3 |
| 20260502021759 | 35 | 337 | 0.0 | 0.0 | 0.00 | 0.00 | 0.00 | 85 | 1020.3 |
| 20260502021259 | 35 | 337 | 0.0 | 0.0 | 0.00 | 0.00 | 0.00 | 85 | 1020.2 |
| 20260502020759 | 35 | 337 | 0.0 | 0.0 | 0.00 | 0.00 | 0.00 | 85 | 1020.1 |
| 20260502020259 | 35 | 337 | 0.0 | 0.0 | 0.00 | 0.00 | 0.00 | 85 | 1020.0 |
| 20260502015758 | 35 | 337 | 0.0 | 0.0 | 0.00 | 0.00 | 0.00 | 85 | 1020.1 |
| 20260502015258 | 35 | 337 | 0.0 | 0.0 | 0.00 | 0.00 | 0.00 | 85 | 1020.1 |
| 20260502014758 | 35 | 337 | 0.0 | 0.0 | 0.00 | 0.00 | 0.00 | 85 | 1020.2 |
| 20260502014258 | 35 | 337 | 0.0 | 0.0 | 0.00 | 0.00 | 0.00 | 85 | 1020.1 |
| 20260502013757 | 35 | 337 | 0.0 | 0.0 | 0.00 | 0.00 | 0.00 | 85 | 1020.1 |
| 20260502013257 | 35 | 337 | 0.0 | 0.0 | 0.00 | 0.00 | 0.00 | 85 | 1020.1 |
| 20260502012757 | 35 | 337 | 0.0 | 0.0 | 0.00 | 0.00 | 0.00 | 84 | 1020.1 |
| 20260502012256 | 36 | 337 | 0.0 | 0.0 | 0.00 | 0.00 | 0.00 | 84 | 1020.3 |
| 20260502011756 | 36 | 337 | 0.0 | 0.0 | 0.00 | 0.00 | 0.00 | 84 | 1020.2 |
| 20260502011256 | 36 | 337 | 0.0 | 0.0 | 0.00 | 0.00 | 0.00 | 85 | 1020.3 |
| 20260502010756 | 36 | 337 | 0.0 | 0.0 | 0.00 | 0.00 | 0.00 | 84 | 1020.1 |
| 20260502010255 | 36 | 337 | 0.0 | 0.0 | 0.00 | 0.00 | 0.00 | 84 | 1020.2 |
| 20260502005755 | 36 | 337 | 0.0 | 0.0 | 0.00 | 0.00 | 0.00 | 84 | 1020.3 |
| 20260502005255 | 36 | 337 | 0.0 | 0.0 | 0.00 | 0.00 | 0.00 | 84 | 1020.3 |
| 20260502004755 | 36 | 337 | 0.0 | 0.0 | 0.00 | 0.00 | 0.00 | 84 | 1020.2 |
| 20260502004254 | 36 | 337 | 0.0 | 0.0 | 0.00 | 0.00 | 0.00 | 84 | 1020.2 |
| 20260502003754 | 37 | 337 | 0.0 | 0.0 | 0.00 | 0.00 | 0.00 | 84 | 1020.2 |
| 20260502003254 | 37 | 337 | 0.0 | 0.0 | 0.00 | 0.00 | 0.00 | 84 | 1020.1 |
| 20260502002754 | 37 | 337 | 0.0 | 0.0 | 0.00 | 0.00 | 0.00 | 84 | 1020.3 |
| 20260502002253 | 37 | 337 | 0.0 | 0.0 | 0.00 | 0.00 | 0.00 | 84 | 1020.3 |
| 20260502001753 | 37 | 337 | 0.0 | 0.0 | 0.00 | 0.00 | 0.00 | 84 | 1020.3 |
| 20260502001253 | 37 | 337 | 0.0 | 0.0 | 0.00 | 0.00 | 0.00 | 83 | 1020.3 |
| 20260502000753 | 38 | 337 | 0.0 | 0.0 | 0.00 | 0.00 | 0.00 | 83 | 1020.2 |
| 20260502000252 | 38 | 337 | 0.0 | 0.0 | 0.00 | 0.00 | 0.00 | 83 | 1020.5 |
| 20260501235752 | 38 | 337 | 0.0 | 0.0 | 0.00 | 0.00 | 0.00 | 83 | 1020.5 |
| 20260501235252 | 38 | 337 | 0.0 | 0.0 | 0.00 | 0.00 | 0.00 | 82 | 1020.5 |
| 20260501234751 | 38 | 337 | 0.0 | 0.0 | 0.00 | 0.00 | 0.00 | 82 | 1020.5 |
| 20260501234251 | 38 | 337 | 0.0 | 0.0 | 0.00 | 0.00 | 0.00 | 82 | 1020.4 |
| 20260501233751 | 39 | 337 | 0.0 | 0.0 | 0.00 | 0.00 | 0.00 | 82 | 1020.3 |
| 20260501233251 | 38 | 337 | 0.0 | 0.0 | 0.00 | 0.00 | 0.00 | 82 | 1020.4 |
| 20260501232750 | 38 | 337 | 0.0 | 0.0 | 0.00 | 0.00 | 0.00 | 82 | 1020.4 |
| 20260501232250 | 39 | 337 | 0.0 | 0.0 | 0.00 | 0.00 | 0.00 | 82 | 1020.4 |